Plymouth Peak Pro Challenge - 400 Mile Return Bird Inventory

Station: INVENTORY - T Race

Distance: 10 Miles    

Release: 05-Nov-2020 12:45

Weather Release:    Arrival:

Wind at Release:     Wind at Arrival:

Temp at Release: °    Temp at Arrival: °

Lofts: 102

Birds: 347

Clocked: 79

Please Let Us Know If You Want Your Birds Shipped Back. Thanks For A Great Race
Drops Pos Breeder Pigeon Name Color Sex Ent Arrival Speed To Win Elg PdAOCRAREPed
1 Horse Heaven Hills - OR 0012-AU20-HHH BCWF C 1 12:49:20.10 4059.977 00:00:00 Yes
2 Coey & Geust - OH 1900-AU20-BUCK BBTC C 1 12:49:30.70 3900.997 00:00:11 Yes
3 Cherokee Loft - MI 0640-AU20-CHER 2695 Nanez X 1231 Kolv BB H 1 12:49:32.00 3882.353 00:00:12 Yes
4 Brown & Evans - TX 0382-AU20-WF BB H 1 12:49:54.40 3586.957 00:00:34 Yes
5 Slick Hills Loft - UT 51308-AU20-ARPU BBPD H 1 12:51:02.70 2911.497 00:01:43 Yes
6 Dennis Martinen - WA 0315-AU20-YAK Rudi’s Loose Tooth BC H 1 12:51:54.00 2550.725 00:02:34 Yes
7 D G F Loft - UT 1064-AU20-UVI 964/35 BLK H 1 12:52:13.20 2437.673 00:02:53 Yes
8 Peters - GA 0047-AU20-PETE Mad Rock BC H 1 12:52:14.10 2432.619 00:02:54 Yes
9 Brown & Evans - TX 0384-AU20-WF BC H 2 12:52:28.60 2353.990 00:03:09 Yes
10 Dennis Martinen - WA 0335-AU20-YAK Doctor Gordon BB H 2 12:52:48.50 2254.002 00:03:28 Yes
11 G & L Loft - OR 0401-AU20-FHI BKRP H 1 12:55:21.10 1700.209 00:06:01 Yes
12 Bill Kluge - TX 2014-AU20-COLD 22 BB 0 1 12:57:32.00 1404.255 00:08:12 Yes
13 Murray/Porter - WI 31110-AU20-JEDD H 1 13:29:40.30 393.986 00:40:20 Yes
14 Marengo Creek Farms - GA 3658-AU20-MCF BB H 1 13:51:02.40 266.505 01:01:42 Yes
15 V & G Loft - UT 2013-AU20-GRAY Stewart BC H 1 13:52:23.00 261.192 01:03:03 Yes
16 Debeers Loft - UT 47214-AU20-ARPU BB H 1 13:52:24.90 261.069 01:03:05 Yes
17 Rory Smith - UT 0410-AU20-CDR BB H 1 13:52:30.80 260.689 01:03:11 Yes
18 S & M Loft - Eden Loft - ID 4100-AU20-FOYS MYSP C 1 13:52:31.60 260.638 01:03:11 Yes
19 Ron Pairan - OH 0617-AU20-LFO BB H 1 13:53:08.60 258.279 01:03:49 Yes
20 A P C Loft - TX 20034-AU20-APC BB H 1 13:54:30.00 253.237 01:05:10 Yes
21 Dr. Dominic Dekesatry - TX 2571-AU20-HOT BB H 1 13:55:45.30 248.746 01:06:25 Yes
22 Nemelka Racing Pigeon Loft - UT 0047-AU20-NRPL Be Lucky BB H 1 13:56:50.80 244.966 01:07:31 Yes
23 Double D Loft - FL 0464-AU20-FES BB H 1 13:57:02.00 244.331 01:07:42 Yes
24 Pyrate - MA 0605-AU20-PYRT Adrestia BB H 1 13:58:12.10 240.432 01:08:52 Yes
25 Callahan Loft - MO 0900-AU20-AA DC C 1 13:58:39.20 238.957 01:09:19 Yes
26 Merrill Brother\'s - ID 0603-AU20-GEM INDG H 1 13:58:44.70 238.660 01:09:25 Yes
27 Murray/Porter - WI 31108-AU20-JEDD BCSP H 2 13:58:50.00 238.375 01:09:30 Yes
28 Slick Hills Loft - UT 51345-AU20-ARPU BC H 2 13:58:52.20 238.256 01:09:32 Missing
29 Racing Pigeon Mall - WA 1028-AU20-RPM BLK C 1 13:59:30.00 236.242 01:10:10 Yes
30 Skylinerpl.Com - UT 0116-AU20-UVI "Bettini Special" BB C 1 13:59:56.10 234.870 01:10:36 Yes
31 Murray/Porter - WI 0296-AU20-RRR LTBC H 3 14:00:01.70 234.578 01:10:42 Yes
32 House Of Paine - CA 0244-AU20-HOUS 87x238 BC H 1 14:00:23.30 233.458 01:11:03 Yes
33 Nick & Sons - WA 58221-AU20-ARPU BBSP C 1 14:01:00.90 231.533 01:11:41 Yes
34 Life Loft - WA 1446-AU20-CBF New Stuff BC H 1 14:01:29.40 230.095 01:12:09 Yes
35 Tavares/Owen - GA 0306-AU20-NA OWEN BB C 1 14:01:37.90 229.670 01:12:18 Yes
36 Dirty Dozen Loft - UT 20055-AU20-MOSH BC H 1 14:01:38.40 229.645 01:12:18 Yes
37 Ed Kehl - UT 1601-AU20-WGS BC H 1 14:02:59.40 225.670 01:13:39 Yes
38 Dirty Dozen Loft - UT 2701-AU20-WFA BB H 2 14:03:33.90 224.018 01:14:14 Yes
39 Double D Loft - FL 0465-AU20-FES BB C 2 14:03:38.40 223.805 01:14:18 Yes
40 Skylinerpl.Com - UT 35762-AU20-JEDD "Little Newtron" BB H 2 14:05:08.90 219.593 01:15:49 Yes
41 Brown & Evans - TX 0251-AU20-WF BB H 3 14:05:12.40 219.433 01:15:52 Yes
42 Bill Kluge - TX 2005-AU20-COLD 7 BC 0 2 14:05:42.70 218.060 01:16:23 Yes
43 D G F Loft - UT 1071-AU20-UVI 645/217 BB H 2 14:05:44.50 217.979 01:16:24 Yes
44 D G F Loft - UT 1081-AU20-UVI 04/2nines BB C 3 14:08:05.50 211.814 01:18:45 Yes
45 Whiteley Loft - UT 1156-AU20-UVI BB H 1 14:09:34.80 208.087 01:20:15 Yes
46 Rory Smith - UT 0509-AU20-CDR BB H 2 14:10:17.60 206.347 01:20:57 Yes
47 Milo’s Loft - OK 5316-AU20-ARPU Cheeseheaded fox MLY C 1 14:10:33.00 205.728 01:21:13 Yes
48 Rory Smith - UT 0425-AU20-CDR BCTC H 3 14:10:39.30 205.475 01:21:19 Yes
49 Rocky Mountain Racing - UT 0126-AU20-RMR BCWF C 1 14:10:48.80 205.096 01:21:29 Yes
50 Rory Smith - UT 0401-AU20-CDR BB C 4 14:12:35.50 200.932 01:23:15 Yes
51 Tavares/Owen - GA 0310-AU20-NA BOB BBWF C 2 14:13:35.90 198.649 01:24:16 Yes
52 Ron Pairan - OH 0622-AU20-LFO BB C 2 14:13:55.80 197.908 01:24:36 Yes
53 A P C Loft - TX 20083-AU20-APC BB H 2 14:14:02.80 197.649 01:24:43 Yes
54 Callahan Loft - MO 0901-AU20-AA BB H 2 14:14:34.90 196.469 01:25:15 Yes
55 Dennis Martinen - WA 0309-AU20-YAK Lulu’s Dream BC H 3 14:14:35.20 196.458 01:25:15 Yes
56 Callahan Loft - MO 0944-AU20-AA BB C 3 14:14:59.00 195.592 01:25:39 Yes
57 Silicon Valley Syndicate - CA 20004-AU20-SVS DC H 1 14:16:18.30 192.761 01:26:58 Yes
58 V & G Loft - UT 2058-AU20-GRAY M.A.G RC C 2 14:16:35.30 192.164 01:27:15 Yes
59 House Of Paine - CA 0231-AU20-HOUS 779x1196 DC H 2 14:16:36.80 192.112 01:27:17 Yes
60 High West Loft - UT 0665-AU20-UVI BBSP H 1 14:16:37.70 192.080 01:27:18 Yes
61 Nick & Sons - WA 58212-AU20-ARPU BCWF H 2 14:16:46.30 191.780 01:27:26 Yes
62 Ron Pairan - OH 0613-AU20-LFO GRIZ H 3 14:16:48.00 191.721 01:27:28 Yes
63 A P C Loft - TX 20106-AU20-APC BB C 3 14:16:52.70 191.558 01:27:33 Yes
64 R & S Loft Of Tx - TX 0102-AU20-RSL BBTC H 1 14:16:54.50 191.495 01:27:34 Yes
65 Callahan Loft - MO 0903-AU20-AA MYSP H 4 14:16:55.00 191.478 01:27:35 Yes
66 Dennis Martinen - WA 0310-AU20-YAK Rachel’s Big Bird BB C 4 14:16:56.70 191.419 01:27:37 Yes
67 V & G Loft - UT 2057-AU20-GRAY Campbell BC H 3 14:16:58.10 191.370 01:27:38 Yes
68 S & M Loft - Eden Loft - ID 22103-AU20-JEDD BB C 2 14:16:59.10 191.336 01:27:39 Yes
69 Wessel Family Lofts - CA 4006-AU20-ARC BB C 1 14:17:23.70 190.486 01:28:04 Yes
70 Rocky Mountain Racing - UT 0120-AU20-RMR BBSP C 2 14:20:34.30 184.155 01:31:14 Yes
71 Racing Pigeon Mall - WA 1024-AU20-RPM DC H 2 14:25:49.40 174.563 01:36:29 Yes
72 A P C Loft - TX 20051-AU20-APC BC H 4 14:26:56.00 172.662 01:37:36 Yes
73 M & Y Connection - MI 0129-AU20-MY 23 x 1141 BB H 1 14:27:03.30 172.456 01:37:43 Yes
74 Ed Kehl - UT 1603-AU20-WGS BCWF H 2 14:27:18.20 172.037 01:37:58 Yes
75 Horse Heaven Hills - OR 0018-AU20-HHH BBPN H 2 14:27:57.70 170.937 01:38:38 Yes
76 Richard & Carmen Gale - UT 0307-AU20-CDR ASH C 1 14:29:41.90 168.102 01:40:22 Yes
77 Silicon Valley Syndicate - CA 20015-AU20-SVS BC C 2 14:31:27.90 165.313 01:42:08 Yes
78 Silicon Valley Syndicate - CA 20012-AU20-SVS BB H 3 14:37:25.60 156.546 01:48:06 Yes
79 Tex-Mex Loft - TX 0047-AU20-TXMX Ole Faithful BB H 1 2020-11-07 11:59:47.20 13.663 21:23:49 Yes

There are 79 bird records

Note: These Race Results are unofficial and subject to change until verified by the Race Committee and declared final.